iso_date,epoch_date,Year,Hour,Min,DOY,POS_DOY,Lat,Lon,BP,Ts,Ta,has_bp,has_ts,has_ta,BuoyID,Buoy_Type,Buoy_Owner,Logistics,Hemisphere
2011-08-08T22:03:21Z,1312841002,2011,22,4,220.919,220.919,76.08822,-138.28254,1013.04,-999.00,0.33,yes,no,yes,300234010031220,unknown,unknown,unknown,North
2011-08-08T23:02:24Z,1312844544,2011,23,2,220.96,220.96,76.08523,-138.29652,1013.42,-999.00,0.2,yes,no,yes,300234010031220,unknown,unknown,unknown,North
2011-08-09T00:00:00Z,1312848000,2011,0,0,221.0,221.0,76.08292,-138.3049,1013.67,-999.00,0.14,yes,no,yes,300234010031220,unknown,unknown,unknown,North
2011-08-09T00:57:36Z,1312851456,2011,0,57,221.04,221.04,76.08174,-138.32676,1013.81,-999.00,0.32,yes,no,yes,300234010031220,unknown,unknown,unknown,North
2011-08-09T01:55:12Z,1312854912,2011,1,55,221.08,221.08,76.08243,-138.34736,1013.74,-999.00,0.15,yes,no,yes,300234010031220,unknown,unknown,unknown,North
2011-08-09T03:07:12Z,1312859232,2011,3,7,221.13,221.13,76.08439,-138.35205,1014.16,-999.00,0.01,yes,no,yes,300234010031220,unknown,unknown,unknown,North
2011-08-09T04:03:21Z,1312862602,2011,4,4,221.169,221.169,76.08786,-138.36209,1014.32,-999.00,-0.01,yes,no,yes,300234010031220,unknown,unknown,unknown,North
2011-08-09T05:02:24Z,1312866144,2011,5,2,221.21,221.21,76.09154,-138.36072,1014.65,-999.00,-0.2,yes,no,yes,300234010031220,unknown,unknown,unknown,North
2011-08-09T06:00:00Z,1312869600,2011,6,0,221.25,221.25,76.09465,-138.36818,1014.98,-999.00,-0.19,yes,no,yes,300234010031220,unknown,unknown,unknown,North
2011-08-09T06:57:36Z,1312873056,2011,6,57,221.29,221.29,76.09631,-138.34238,1015.23,-999.00,-0.1,yes,no,yes,300234010031220,unknown,unknown,unknown,North
2011-08-09T07:55:12Z,1312876512,2011,7,55,221.33,221.33,76.09618,-138.32191,1015.72,-999.00,-0.2,yes,no,yes,300234010031220,unknown,unknown,unknown,North
2011-08-09T09:07:12Z,1312880832,2011,9,7,221.38,221.38,76.09441,-138.30424,1016.04,-999.00,-0.33,yes,no,yes,300234010031220,unknown,unknown,unknown,North
2011-08-09T10:03:21Z,1312884202,2011,10,4,221.419,221.419,76.09038,-138.28395,1016.37,-999.00,-0.41,yes,no,yes,300234010031220,unknown,unknown,unknown,North
2011-08-09T11:02:24Z,1312887744,2011,11,2,221.46,221.46,76.08505,-138.27803,1016.43,-999.00,-0.93,yes,no,yes,300234010031220,unknown,unknown,unknown,North
2011-08-09T12:00:00Z,1312891200,2011,12,0,221.5,221.5,76.07884,-138.26543,1017.1,-999.00,-1.33,yes,no,yes,300234010031220,unknown,unknown,unknown,North
2011-08-09T12:57:36Z,1312894656,2011,12,57,221.54,221.54,76.07311,-138.26348,1017.33,-999.00,-1.32,yes,no,yes,300234010031220,unknown,unknown,unknown,North
2011-08-09T13:55:12Z,1312898112,2011,13,55,221.58,221.58,76.06912,-138.27725,1017.75,-999.00,-1.07,yes,no,yes,300234010031220,unknown,unknown,unknown,North
2011-08-09T15:07:12Z,1312902432,2011,15,7,221.63,221.63,76.06741,-138.27113,1018.08,-999.00,-0.88,yes,no,yes,300234010031220,unknown,unknown,unknown,North
2011-08-09T16:03:21Z,1312905802,2011,16,4,221.669,221.669,76.06728,-138.28709,1018.48,-999.00,-0.83,yes,no,yes,300234010031220,unknown,unknown,unknown,North
2011-08-09T17:02:24Z,1312909344,2011,17,2,221.71,221.71,76.06802,-138.28672,1018.73,-999.00,-0.83,yes,no,yes,300234010031220,unknown,unknown,unknown,North
2011-08-09T18:00:00Z,1312912800,2011,18,0,221.75,221.75,76.06843,-138.27396,1018.9,-999.00,-0.84,yes,no,yes,300234010031220,unknown,unknown,unknown,North
2011-08-09T18:57:36Z,1312916256,2011,18,57,221.79,221.79,76.06779,-138.25021,1019.38,-999.00,-0.84,yes,no,yes,300234010031220,unknown,unknown,unknown,North
2011-08-09T19:55:12Z,1312919712,2011,19,55,221.83,221.83,76.06553,-138.23238,1019.62,-999.00,-0.86,yes,no,yes,300234010031220,unknown,unknown,unknown,North
2011-08-09T21:07:12Z,1312924032,2011,21,7,221.88,221.88,76.06089,-138.21793,1019.86,-999.00,-0.96,yes,no,yes,300234010031220,unknown,unknown,unknown,North
2011-08-09T22:03:21Z,1312927402,2011,22,4,221.919,221.919,76.05394,-138.1807,1020.09,-999.00,-1.03,yes,no,yes,300234010031220,unknown,unknown,unknown,North
2011-08-09T23:02:24Z,1312930944,2011,23,2,221.96,221.96,76.04545,-138.17695,1020.25,-999.00,-0.86,yes,no,yes,300234010031220,unknown,unknown,unknown,North
2011-08-11T00:00:00Z,1313020800,2011,0,0,223.0,223.0,75.95146,-138.03742,1023.51,-999.00,0.08,yes,no,yes,300234010031220,unknown,unknown,unknown,North
2011-08-11T00:57:36Z,1313024256,2011,0,57,223.04,223.04,75.94621,-138.03826,1023.61,-999.00,-0.14,yes,no,yes,300234010031220,unknown,unknown,unknown,North
2011-08-11T01:55:12Z,1313027712,2011,1,55,223.08,223.08,75.94163,-138.03566,1023.86,-999.00,-0.18,yes,no,yes,300234010031220,unknown,unknown,unknown,North
2011-08-11T03:07:12Z,1313032032,2011,3,7,223.13,223.13,75.93826,-138.03115,1024.11,-999.00,-0.12,yes,no,yes,300234010031220,unknown,unknown,unknown,North
2011-08-11T04:03:21Z,1313035402,2011,4,4,223.169,223.169,75.93625,-138.04557,1024.18,-999.00,-0.18,yes,no,yes,300234010031220,unknown,unknown,unknown,North
2011-08-11T05:02:24Z,1313038944,2011,5,2,223.21,223.21,75.9357,-138.04166,1024.44,-999.00,-0.28,yes,no,yes,300234010031220,unknown,unknown,unknown,North
2011-08-11T06:00:00Z,1313042400,2011,6,0,223.25,223.25,75.93634,-138.04355,1024.76,-999.00,-0.28,yes,no,yes,300234010031220,unknown,unknown,unknown,North
2011-08-11T06:57:36Z,1313045856,2011,6,57,223.29,223.29,75.93739,-138.03227,1024.92,-999.00,-0.24,yes,no,yes,300234010031220,unknown,unknown,unknown,North
2011-08-11T07:55:12Z,1313049312,2011,7,55,223.33,223.33,75.93803,-138.02533,1025.41,-999.00,-0.3,yes,no,yes,300234010031220,unknown,unknown,unknown,North
2011-08-11T09:07:12Z,1313053632,2011,9,7,223.38,223.38,75.93772,-138.00121,1025.58,-999.00,-0.3,yes,no,yes,300234010031220,unknown,unknown,unknown,North
2011-08-11T10:03:21Z,1313057002,2011,10,4,223.419,223.419,75.93651,-137.99977,1025.91,-999.00,-0.32,yes,no,yes,300234010031220,unknown,unknown,unknown,North
2011-08-11T11:02:24Z,1313060544,2011,11,2,223.46,223.46,75.93413,-137.97699,1026.07,-999.00,-0.32,yes,no,yes,300234010031220,unknown,unknown,unknown,North
2011-08-11T12:00:00Z,1313064000,2011,12,0,223.5,223.5,75.93088,-137.96928,1026.72,-999.00,-0.26,yes,no,yes,300234010031220,unknown,unknown,unknown,North
2011-08-11T12:57:36Z,1313067456,2011,12,57,223.54,223.54,75.92758,-137.95533,1026.97,-999.00,-0.23,yes,no,yes,300234010031220,unknown,unknown,unknown,North
2011-08-11T13:55:12Z,1313070912,2011,13,55,223.58,223.58,75.92482,-137.9559,1027.21,-999.00,-0.18,yes,no,yes,300234010031220,unknown,unknown,unknown,North
2011-08-11T15:07:12Z,1313075232,2011,15,7,223.63,223.63,75.92285,-137.95416,1027.53,-999.00,-0.11,yes,no,yes,300234010031220,unknown,unknown,unknown,North
2011-08-11T16:03:21Z,1313078602,2011,16,4,223.669,223.669,75.92148,-137.95098,1027.86,-999.00,-0.12,yes,no,yes,300234010031220,unknown,unknown,unknown,North
2011-08-11T17:02:24Z,1313082144,2011,17,2,223.71,223.71,75.92136,-137.96563,1028.11,-999.00,0.13,yes,no,yes,300234010031220,unknown,unknown,unknown,North
2011-08-11T18:00:00Z,1313085600,2011,18,0,223.75,223.75,75.92281,-137.96146,1028.51,-999.00,0.19,yes,no,yes,300234010031220,unknown,unknown,unknown,North
2011-08-11T18:57:36Z,1313089056,2011,18,57,223.79,223.79,75.92482,-137.96244,1029.0,-999.00,0.16,yes,no,yes,300234010031220,unknown,unknown,unknown,North
2011-08-11T19:55:12Z,1313092512,2011,19,55,223.83,223.83,75.92703,-137.96947,1029.25,-999.00,0.26,yes,no,yes,300234010031220,unknown,unknown,unknown,North
2011-08-11T21:07:12Z,1313096832,2011,21,7,223.88,223.88,75.92865,-137.9598,1029.42,-999.00,0.22,yes,no,yes,300234010031220,unknown,unknown,unknown,North
2011-08-11T22:03:21Z,1313100202,2011,22,4,223.919,223.919,75.92776,-137.93188,1029.74,-999.00,0.2,yes,no,yes,300234010031220,unknown,unknown,unknown,North
2011-08-11T23:02:24Z,1313103744,2011,23,2,223.96,223.96,75.92421,-137.92414,1030.07,-999.00,0.18,yes,no,yes,300234010031220,unknown,unknown,unknown,North
2011-08-13T00:00:00Z,1313193600,2011,0,0,225.0,225.0,75.87806,-137.96328,1029.73,-999.00,-0.88,yes,no,yes,300234010031220,unknown,unknown,unknown,North
2011-08-13T00:57:36Z,1313197056,2011,0,57,225.04,225.04,75.87541,-137.96998,1029.36,-999.00,-0.68,yes,no,yes,300234010031220,unknown,unknown,unknown,North
2011-08-13T01:55:12Z,1313200512,2011,1,55,225.08,225.08,75.87184,-137.9523,1029.06,-999.00,-0.6,yes,no,yes,300234010031220,unknown,unknown,unknown,North
2011-08-13T03:07:12Z,1313204832,2011,3,7,225.13,225.13,75.86815,-137.96828,1028.73,-999.00,-0.5,yes,no,yes,300234010031220,unknown,unknown,unknown,North
2011-08-13T04:03:21Z,1313208202,2011,4,4,225.169,225.169,75.8651,-137.97721,1028.47,-999.00,-0.6,yes,no,yes,300234010031220,unknown,unknown,unknown,North
2011-08-13T05:02:24Z,1313211744,2011,5,2,225.21,225.21,75.86359,-137.9809,1028.14,-999.00,-0.65,yes,no,yes,300234010031220,unknown,unknown,unknown,North
2011-08-13T06:00:00Z,1313215200,2011,6,0,225.25,225.25,75.86434,-138.00461,1028.16,-999.00,-0.59,yes,no,yes,300234010031220,unknown,unknown,unknown,North
2011-08-13T06:57:36Z,1313218656,2011,6,57,225.29,225.29,75.86723,-138.01273,1027.76,-999.00,-1.25,yes,no,yes,300234010031220,unknown,unknown,unknown,North
2011-08-13T07:55:12Z,1313222112,2011,7,55,225.33,225.33,75.87081,-138.02916,1027.33,-999.00,-1.4,yes,no,yes,300234010031220,unknown,unknown,unknown,North
2011-08-13T09:07:12Z,1313226432,2011,9,7,225.38,225.38,75.87395,-138.01396,1027.24,-999.00,-1.54,yes,no,yes,300234010031220,unknown,unknown,unknown,North
2011-08-13T10:03:21Z,1313229802,2011,10,4,225.419,225.419,75.87569,-138.00381,1027.1,-999.00,-1.72,yes,no,yes,300234010031220,unknown,unknown,unknown,North
2011-08-13T11:02:24Z,1313233344,2011,11,2,225.46,225.46,75.87577,-137.99498,1027.18,-999.00,-2.32,yes,no,yes,300234010031220,unknown,unknown,unknown,North
2011-08-13T12:00:00Z,1313236800,2011,12,0,225.5,225.5,75.87416,-137.98438,1027.16,-999.00,-1.82,yes,no,yes,300234010031220,unknown,unknown,unknown,North
2011-08-13T12:57:36Z,1313240256,2011,12,57,225.54,225.54,75.8705,-137.98688,1027.16,-999.00,-2.49,yes,no,yes,300234010031220,unknown,unknown,unknown,North
2011-08-13T13:55:12Z,1313243712,2011,13,55,225.58,225.58,75.86604,-137.98063,1026.91,-999.00,-2.63,yes,no,yes,300234010031220,unknown,unknown,unknown,North
2011-08-13T15:07:12Z,1313248032,2011,15,7,225.63,225.63,75.86176,-138.00617,1026.67,-999.00,-2.65,yes,no,yes,300234010031220,unknown,unknown,unknown,North
2011-08-13T16:03:21Z,1313251402,2011,16,4,225.669,225.669,75.8585,-138.02398,1026.68,-999.00,-2.39,yes,no,yes,300234010031220,unknown,unknown,unknown,North
2011-08-13T17:02:24Z,1313254944,2011,17,2,225.71,225.71,75.85708,-138.05625,1026.67,-999.00,-2.42,yes,no,yes,300234010031220,unknown,unknown,unknown,North
2011-08-13T18:00:00Z,1313258400,2011,18,0,225.75,225.75,75.85795,-138.08908,1026.75,-999.00,-1.96,yes,no,yes,300234010031220,unknown,unknown,unknown,North
2011-08-13T18:57:36Z,1313261856,2011,18,57,225.79,225.79,75.86078,-138.10689,1026.66,-999.00,-1.56,yes,no,yes,300234010031220,unknown,unknown,unknown,North
2011-08-13T19:55:12Z,1313265312,2011,19,55,225.83,225.83,75.86465,-138.11318,1026.74,-999.00,-1.37,yes,no,yes,300234010031220,unknown,unknown,unknown,North
2011-08-13T21:07:12Z,1313269632,2011,21,7,225.88,225.88,75.86823,-138.12783,1026.97,-999.00,-0.82,yes,no,yes,300234010031220,unknown,unknown,unknown,North
2011-08-13T22:03:21Z,1313273002,2011,22,4,225.919,225.919,75.87069,-138.12986,1027.05,-999.00,-0.44,yes,no,yes,300234010031220,unknown,unknown,unknown,North
2011-08-13T23:02:24Z,1313276544,2011,23,2,225.96,225.96,75.87135,-138.11736,1027.05,-999.00,-0.07,yes,no,yes,300234010031220,unknown,unknown,unknown,North
2011-08-14T00:00:00Z,1313280000,2011,0,0,226.0,226.0,75.86986,-138.10678,1027.21,-999.00,-0.12,yes,no,yes,300234010031220,unknown,unknown,unknown,North
2011-08-14T00:57:36Z,1313283456,2011,0,57,226.04,226.04,75.86674,-138.09227,1026.89,-999.00,-0.14,yes,no,yes,300234010031220,unknown,unknown,unknown,North
2011-08-14T01:55:12Z,1313286912,2011,1,55,226.08,226.08,75.86259,-138.10863,1026.72,-999.00,-0.47,yes,no,yes,300234010031220,unknown,unknown,unknown,North
2011-08-14T03:07:12Z,1313291232,2011,3,7,226.13,226.13,75.85826,-138.1142,1026.72,-999.00,-0.63,yes,no,yes,300234010031220,unknown,unknown,unknown,North
2011-08-14T04:03:21Z,1313294602,2011,4,4,226.169,226.169,75.85474,-138.13205,1026.63,-999.00,-0.51,yes,no,yes,300234010031220,unknown,unknown,unknown,North
2011-08-14T05:02:24Z,1313298144,2011,5,2,226.21,226.21,75.85269,-138.16545,1026.72,-999.00,-0.79,yes,no,yes,300234010031220,unknown,unknown,unknown,North
2011-08-14T06:00:00Z,1313301600,2011,6,0,226.25,226.25,75.85292,-138.19762,1026.72,-999.00,-1.35,yes,no,yes,300234010031220,unknown,unknown,unknown,North
2011-08-14T06:57:36Z,1313305056,2011,6,57,226.29,226.29,75.85458,-138.2132,1026.72,-999.00,-1.68,yes,no,yes,300234010031220,unknown,unknown,unknown,North
2011-08-14T07:55:12Z,1313308512,2011,7,55,226.33,226.33,75.8576,-138.23354,1026.88,-999.00,-2.65,yes,no,yes,300234010031220,unknown,unknown,unknown,North
2011-08-14T09:07:12Z,1313312832,2011,9,7,226.38,226.38,75.86143,-138.25953,1027.03,-999.00,-2.89,yes,no,yes,300234010031220,unknown,unknown,unknown,North
2011-08-14T10:03:21Z,1313316202,2011,10,4,226.419,226.419,75.86497,-138.2516,1027.2,-999.00,-2.94,yes,no,yes,300234010031220,unknown,unknown,unknown,North
2011-08-14T11:02:24Z,1313319744,2011,11,2,226.46,226.46,75.8675,-138.26871,1027.45,-999.00,-3.0,yes,no,yes,300234010031220,unknown,unknown,unknown,North
2011-08-14T12:00:00Z,1313323200,2011,12,0,226.5,226.5,75.86872,-138.25006,1027.62,-999.00,-3.03,yes,no,yes,300234010031220,unknown,unknown,unknown,North
2011-08-14T12:57:36Z,1313326656,2011,12,57,226.54,226.54,75.86822,-138.25498,1027.8,-999.00,-2.59,yes,no,yes,300234010031220,unknown,unknown,unknown,North
2011-08-14T13:55:12Z,1313330112,2011,13,55,226.58,226.58,75.86644,-138.25871,1027.73,-999.00,-2.57,yes,no,yes,300234010031220,unknown,unknown,unknown,North
2011-08-14T15:07:12Z,1313334432,2011,15,7,226.63,226.63,75.86366,-138.25877,1027.77,-999.00,-1.66,yes,no,yes,300234010031220,unknown,unknown,unknown,North
2011-08-14T16:03:21Z,1313337802,2011,16,4,226.669,226.669,75.86073,-138.25371,1027.82,-999.00,-0.81,yes,no,yes,300234010031220,unknown,unknown,unknown,North
2011-08-14T17:02:24Z,1313341344,2011,17,2,226.71,226.71,75.85806,-138.26346,1027.99,-999.00,-0.6,yes,no,yes,300234010031220,unknown,unknown,unknown,North
2011-08-14T18:00:00Z,1313344800,2011,18,0,226.75,226.75,75.856,-138.27139,1028.24,-999.00,-0.66,yes,no,yes,300234010031220,unknown,unknown,unknown,North
2011-08-14T18:57:36Z,1313348256,2011,18,57,226.79,226.79,75.85489,-138.29732,1028.75,-999.00,-0.56,yes,no,yes,300234010031220,unknown,unknown,unknown,North
2011-08-14T19:55:12Z,1313351712,2011,19,55,226.83,226.83,75.85474,-138.30549,1028.91,-999.00,-0.14,yes,no,yes,300234010031220,unknown,unknown,unknown,North
2011-08-14T21:07:12Z,1313356032,2011,21,7,226.88,226.88,75.85497,-138.31699,1028.89,-999.00,0.03,yes,no,yes,300234010031220,unknown,unknown,unknown,North
2011-08-14T22:03:21Z,1313359402,2011,22,4,226.919,226.919,75.85517,-138.31207,1029.04,-999.00,0.26,yes,no,yes,300234010031220,unknown,unknown,unknown,North
2011-08-14T23:02:24Z,1313362944,2011,23,2,226.96,226.96,75.85477,-138.31102,1029.06,-999.00,0.29,yes,no,yes,300234010031220,unknown,unknown,unknown,North
2011-08-15T00:00:00Z,1313366400,2011,0,0,227.0,227.0,75.85293,-138.31283,1028.95,-999.00,0.23,yes,no,yes,300234010031220,unknown,unknown,unknown,North
2011-08-15T00:57:36Z,1313369856,2011,0,57,227.04,227.04,75.84978,-138.31623,1029.03,-999.00,0.15,yes,no,yes,300234010031220,unknown,unknown,unknown,North
2011-08-15T01:55:12Z,1313373312,2011,1,55,227.08,227.08,75.84555,-138.3176,1028.69,-999.00,-0.12,yes,no,yes,300234010031220,unknown,unknown,unknown,North
2011-08-15T03:07:12Z,1313377632,2011,3,7,227.13,227.13,75.84021,-138.31229,1028.7,-999.00,-0.05,yes,no,yes,300234010031220,unknown,unknown,unknown,North
2011-08-15T04:03:21Z,1313381002,2011,4,4,227.169,227.169,75.8345,-138.33994,1028.52,-999.00,-0.34,yes,no,yes,300234010031220,unknown,unknown,unknown,North
2011-08-15T05:02:24Z,1313384544,2011,5,2,227.21,227.21,75.82957,-138.34377,1028.27,-999.00,-0.64,yes,no,yes,300234010031220,unknown,unknown,unknown,North
2011-08-15T06:00:00Z,1313388000,2011,6,0,227.25,227.25,75.82613,-138.36373,1028.04,-999.00,-1.04,yes,no,yes,300234010031220,unknown,unknown,unknown,North
2011-08-15T06:57:36Z,1313391456,2011,6,57,227.29,227.29,75.82453,-138.38299,1028.37,-999.00,-1.11,yes,no,yes,300234010031220,unknown,unknown,unknown,North
2011-08-15T07:55:12Z,1313394912,2011,7,55,227.33,227.33,75.82466,-138.40557,1028.46,-999.00,-1.42,yes,no,yes,300234010031220,unknown,unknown,unknown,North
2011-08-15T09:07:12Z,1313399232,2011,9,7,227.38,227.38,75.8259,-138.41574,1028.47,-999.00,-1.55,yes,no,yes,300234010031220,unknown,unknown,unknown,North
2011-08-15T10:03:21Z,1313402602,2011,10,4,227.419,227.419,75.82712,-138.41428,1028.55,-999.00,-1.66,yes,no,yes,300234010031220,unknown,unknown,unknown,North
2011-08-15T11:02:24Z,1313406144,2011,11,2,227.46,227.46,75.82779,-138.41824,1028.5,-999.00,-1.56,yes,no,yes,300234010031220,unknown,unknown,unknown,North
2011-08-15T12:00:00Z,1313409600,2011,12,0,227.5,227.5,75.82705,-138.406,1028.27,-999.00,-1.57,yes,no,yes,300234010031220,unknown,unknown,unknown,North
2011-08-15T12:57:36Z,1313413056,2011,12,57,227.54,227.54,75.82471,-138.39436,1028.18,-999.00,-1.57,yes,no,yes,300234010031220,unknown,unknown,unknown,North
2011-08-15T13:55:12Z,1313416512,2011,13,55,227.58,227.58,75.82099,-138.38232,1028.01,-999.00,-1.69,yes,no,yes,300234010031220,unknown,unknown,unknown,North
2011-08-15T15:07:12Z,1313420832,2011,15,7,227.63,227.63,75.81577,-138.38602,1027.86,-999.00,-1.22,yes,no,yes,300234010031220,unknown,unknown,unknown,North
2011-08-15T16:03:21Z,1313424202,2011,16,4,227.669,227.669,75.81029,-138.38201,1028.11,-999.00,-1.0,yes,no,yes,300234010031220,unknown,unknown,unknown,North
2011-08-15T17:02:24Z,1313427744,2011,17,2,227.71,227.71,75.80525,-138.39168,1028.11,-999.00,-0.68,yes,no,yes,300234010031220,unknown,unknown,unknown,North
2011-08-15T18:00:00Z,1313431200,2011,18,0,227.75,227.75,75.80157,-138.41539,1028.11,-999.00,-0.29,yes,no,yes,300234010031220,unknown,unknown,unknown,North
2011-08-15T18:57:36Z,1313434656,2011,18,57,227.79,227.79,75.80034,-138.43756,1028.11,-999.00,-0.08,yes,no,yes,300234010031220,unknown,unknown,unknown,North
2011-08-15T19:55:12Z,1313438112,2011,19,55,227.83,227.83,75.80021,-138.44318,1028.19,-999.00,0.12,yes,no,yes,300234010031220,unknown,unknown,unknown,North
2011-08-15T21:07:12Z,1313442432,2011,21,7,227.88,227.88,75.80101,-138.4577,1028.11,-999.00,0.02,yes,no,yes,300234010031220,unknown,unknown,unknown,North
2011-08-15T22:03:21Z,1313445802,2011,22,4,227.919,227.919,75.80216,-138.45793,1027.78,-999.00,0.03,yes,no,yes,300234010031220,unknown,unknown,unknown,North
2011-08-15T23:02:24Z,1313449344,2011,23,2,227.96,227.96,75.80325,-138.44402,1027.79,-999.00,0.24,yes,no,yes,300234010031220,unknown,unknown,unknown,North
2011-08-16T00:00:00Z,1313452800,2011,0,0,228.0,228.0,75.80348,-138.43479,1027.61,-999.00,0.15,yes,no,yes,300234010031220,unknown,unknown,unknown,North
2011-08-16T00:57:36Z,1313456256,2011,0,57,228.04,228.04,75.80234,-138.42744,1027.45,-999.00,0.17,yes,no,yes,300234010031220,unknown,unknown,unknown,North
2011-08-16T01:55:12Z,1313459712,2011,1,55,228.08,228.08,75.79967,-138.4,1027.12,-999.00,0.09,yes,no,yes,300234010031220,unknown,unknown,unknown,North
2011-08-16T03:07:12Z,1313464032,2011,3,7,228.13,228.13,75.79581,-138.40947,1026.71,-999.00,-0.25,yes,no,yes,300234010031220,unknown,unknown,unknown,North
2011-08-16T04:03:21Z,1313467402,2011,4,4,228.169,228.169,75.79146,-138.39404,1026.45,-999.00,-0.6,yes,no,yes,300234010031220,unknown,unknown,unknown,North
2011-08-16T05:02:24Z,1313470944,2011,5,2,228.21,228.21,75.78715,-138.39393,1025.97,-999.00,-1.21,yes,no,yes,300234010031220,unknown,unknown,unknown,North
2011-08-16T06:00:00Z,1313474400,2011,6,0,228.25,228.25,75.78364,-138.40842,1025.73,-999.00,-1.67,yes,no,yes,300234010031220,unknown,unknown,unknown,North
2011-08-16T06:57:36Z,1313477856,2011,6,57,228.29,228.29,75.78142,-138.40131,1025.5,-999.00,-2.75,yes,no,yes,300234010031220,unknown,unknown,unknown,North
2011-08-16T07:55:12Z,1313481312,2011,7,55,228.33,228.33,75.7805,-138.41596,1025.23,-999.00,-3.22,yes,no,yes,300234010031220,unknown,unknown,unknown,North
2011-08-16T09:07:12Z,1313485632,2011,9,7,228.38,228.38,75.78082,-138.41525,1025.14,-999.00,-3.57,yes,no,yes,300234010031220,unknown,unknown,unknown,North
2011-08-16T10:03:21Z,1313489002,2011,10,4,228.419,228.419,75.78162,-138.40139,1024.8,-999.00,-3.82,yes,no,yes,300234010031220,unknown,unknown,unknown,North
2011-08-16T11:02:24Z,1313492544,2011,11,2,228.46,228.46,75.78195,-138.39256,1024.49,-999.00,-4.19,yes,no,yes,300234010031220,unknown,unknown,unknown,North
2011-08-16T12:00:00Z,1313496000,2011,12,0,228.5,228.5,75.78121,-138.38793,1024.18,-999.00,-4.21,yes,no,yes,300234010031220,unknown,unknown,unknown,North
2011-08-16T12:57:36Z,1313499456,2011,12,57,228.54,228.54,75.77892,-138.36449,1023.7,-999.00,-3.99,yes,no,yes,300234010031220,unknown,unknown,unknown,North
2011-08-16T13:55:12Z,1313502912,2011,13,55,228.58,228.58,75.77557,-138.34105,1023.37,-999.00,-3.94,yes,no,yes,300234010031220,unknown,unknown,unknown,North
2011-08-16T15:07:12Z,1313507232,2011,15,7,228.63,228.63,75.77139,-138.33398,1022.88,-999.00,-3.33,yes,no,yes,300234010031220,unknown,unknown,unknown,North
2011-08-16T16:03:21Z,1313510602,2011,16,4,228.669,228.669,75.76673,-138.32332,1022.88,-999.00,-2.9,yes,no,yes,300234010031220,unknown,unknown,unknown,North
2011-08-16T17:02:24Z,1313514144,2011,17,2,228.71,228.71,75.76197,-138.32787,1022.32,-999.00,-2.39,yes,no,yes,300234010031220,unknown,unknown,unknown,North
2011-08-16T18:00:00Z,1313517600,2011,18,0,228.75,228.75,75.75731,-138.32867,1022.14,-999.00,-2.32,yes,no,yes,300234010031220,unknown,unknown,unknown,North
2011-08-16T18:57:36Z,1313521056,2011,18,57,228.79,228.79,75.75348,-138.3285,1021.81,-999.00,-2.31,yes,no,yes,300234010031220,unknown,unknown,unknown,North
2011-08-16T19:55:12Z,1313524512,2011,19,55,228.83,228.83,75.75038,-138.32939,1021.89,-999.00,-1.91,yes,no,yes,300234010031220,unknown,unknown,unknown,North
2011-08-16T21:07:12Z,1313528832,2011,21,7,228.88,228.88,75.74804,-138.3126,1021.49,-999.00,-1.65,yes,no,yes,300234010031220,unknown,unknown,unknown,North
2011-08-16T22:03:21Z,1313532202,2011,22,4,228.919,228.919,75.746,-138.31967,1021.41,-999.00,-1.4,yes,no,yes,300234010031220,unknown,unknown,unknown,North
2011-08-16T23:02:24Z,1313535744,2011,23,2,228.96,228.96,75.74443,-138.2907,1020.82,-999.00,-1.11,yes,no,yes,300234010031220,unknown,unknown,unknown,North
2011-08-17T00:00:00Z,1313539200,2011,0,0,229.0,229.0,75.74264,-138.28723,1020.74,-999.00,-1.15,yes,no,yes,300234010031220,unknown,unknown,unknown,North
2011-08-17T00:57:36Z,1313542656,2011,0,57,229.04,229.04,75.73981,-138.26736,1020.25,-999.00,-1.15,yes,no,yes,300234010031220,unknown,unknown,unknown,North
2011-08-17T01:55:12Z,1313546112,2011,1,55,229.08,229.08,75.73549,-138.24803,1019.51,-999.00,-1.06,yes,no,yes,300234010031220,unknown,unknown,unknown,North
2011-08-17T03:07:12Z,1313550432,2011,3,7,229.13,229.13,75.72984,-138.22605,1019.2,-999.00,-0.95,yes,no,yes,300234010031220,unknown,unknown,unknown,North
2011-08-17T04:03:21Z,1313553802,2011,4,4,229.169,229.169,75.72391,-138.21828,1018.95,-999.00,-0.97,yes,no,yes,300234010031220,unknown,unknown,unknown,North
2011-08-17T05:02:24Z,1313557344,2011,5,2,229.21,229.21,75.71854,-138.20457,1018.54,-999.00,-1.09,yes,no,yes,300234010031220,unknown,unknown,unknown,North
2011-08-17T06:00:00Z,1313560800,2011,6,0,229.25,229.25,75.71421,-138.20617,1018.15,-999.00,-1.0,yes,no,yes,300234010031220,unknown,unknown,unknown,North
2011-08-17T06:57:36Z,1313564256,2011,6,57,229.29,229.29,75.71153,-138.20688,1017.81,-999.00,-1.02,yes,no,yes,300234010031220,unknown,unknown,unknown,North